Zurück zum Katalog

GOES 11

AktivWetterGEO
NORAD 26352·PAYLOAD·🇺🇸 United States

Gestartet May 3, 2000 von Cape Canaveral Space Force Station

Loading…

TLE

AktuellSource: Space-Track

Epoche: Sep 14, 2026, 06:29 UTC

1 26352U 00022A   26257.27058502 -.00000297  00000-0  00000-0 0  9992
2 26352  11.9841  45.5409 0004114 221.3698 329.4120  0.99045062 53354

Verfolge GOES 11 in Echtzeit mit AllMySat

Download on the App Store